Weather reports worldwide

Advertisment
Mannheim, Germany (10729): temperature & dewpoint: 10.09.2019 05:00:00 - 16.09.2019 05:00:00 (CEST)Mannheim, Germany (10729): temperature 5cm & temperature -5cm: 10.09.2019 05:00:00 - 16.09.2019 05:00:00 (CEST)Mannheim, Germany (10729): temperature -20cm & temperature -100cm: 10.09.2019 05:00:00 - 16.09.2019 05:00:00 (CEST)Mannheim, Germany (10729): wind speed & gusts: 10.09.2019 05:00:00 - 16.09.2019 05:00:00 (CEST)Mannheim, Germany (10729): wind direction: 10.09.2019 05:00:00 - 16.09.2019 05:00:00 (CEST)Mannheim, Germany (10729): reduced air pressure: 10.09.2019 05:00:00 - 16.09.2019 05:00:00 (CEST)Mannheim, Germany (10729): visibility: 10.09.2019 05:00:00 - 16.09.2019 05:00:00 (CEST)Mannheim, Germany (10729): sunshine duration: 10.09.2019 05:00:00 - 16.09.2019 05:00:00 (CEST)Mannheim, Germany (10729): precipitation: 10.09.2019 05:00:00 - 16.09.2019 05:00:00 (CEST)
Date & Time tt [°C] td [°C] tt 5cm [°C] tt -5cm [°C] tt -20cm [°C] tt -100cm [°C] ff [km/h] ff [kn] fx [km/h] fx [kn] dd ppp [hPa] vv [km] sd [min] rr [mm]
16.09.2019 05:00:00 10,9 10,4 7,5 16,1 20,8 19,2 2 1 5 3 NNE 1021,4 10 0 0,0
16.09.2019 04:00:00 11,5 10,3 8,6 16,7 21,1 19,2 3 1 6 3 NNE 1021,4 16 0 0,0
16.09.2019 03:00:00 12,5 10,9 8,9 17,3 21,4 19,2 3 2 7 4 N 1021,6 24 0 0,0
16.09.2019 02:00:00 14,1 11,6 10,0 18,1 21,7 19,2 6 3 10 5 NNW 1021,4 31 0 0,0
16.09.2019 01:00:00 13,3 11,3 10,3 18,9 22,0 19,2 5 3 7 4 NNW 1021,8 29 0 0,0
16.09.2019 00:00:00 15,1 12,5 11,1 19,8 22,3 19,2 3 2 6 3 NNE 1021,7 34 0 0,0
15.09.2019 23:00:00 17,0 13,6 12,9 20,9 22,6 19,2 5 3 8 5 NNE 1021,2 32 0 0,0
15.09.2019 22:00:00 18,3 13,4 14,5 22,2 22,8 19,2 4 2 10 5 NE 1021,2 44 0 0,0
15.09.2019 21:00:00 20,4 13,6 15,9 23,6 22,8 19,2 4 2 8 4 NNE 1020,9 46 0 0,0
15.09.2019 20:00:00 22,9 13,5 18,8 25,4 22,7 19,2 5 3 8 4 SE 1020,4 25 39 0,0
15.09.2019 19:00:00 26,3 12,7 25,8 27,4 22,5 19,2 3 2 11 6 S 1020,2 65 60 0,0
15.09.2019 18:00:00 26,7 11,5 30,1 28,8 22,0 19,2 4 2 13 7 WSW 1020,5 67 60 0,0
15.09.2019 17:00:00 26,9 12,1 30,5 29,4 21,5 19,2 4 2 12 7 WNW 1021,1 48 60 0,0
15.09.2019 16:00:00 26,1 12,5 31,4 29,4 20,9 19,2 6 4 14 8 S 1022,0 37 60 0,0
15.09.2019 15:00:00 24,9 12,2 30,1 28,5 20,3 19,2 9 5 17 9 SW 1022,7 26 60 0,0
15.09.2019 14:00:00 24,0 12,6 29,2 26,9 19,7 19,2 5 3 13 7 S 1023,4 44 60 0,0
15.09.2019 13:00:00 22,6 11,8 27,7 25,2 19,3 19,2 7 4 14 8 SSW 1024,1 21 60 0,0
15.09.2019 12:00:00 21,5 12,3 26,2 22,5 19,0 19,2 5 3 11 6 SSW 1024,7 24 60 0,0
15.09.2019 11:00:00 19,4 11,0 21,8 20,0 18,9 19,2 3 2 7 4 WSW 1025,2 33 60 0,0
15.09.2019 10:00:00 17,2 10,3 18,5 17,7 19,0 19,2 2 1 6 3 ENE 1025,4 29 59 0,0
15.09.2019 09:00:00 14,4 9,4 14,2 15,8 19,2 19,2 3 1 5 3 NW 1025,7 26 60 0,0
15.09.2019 08:00:00 11,8 9,3 10,5 14,8 19,5 19,2 3 2 6 4 NNW 1025,6 25 22 0,0
15.09.2019 07:00:00 10,7 9,5 8,0 15,1 19,7 19,2 3 1 5 3 NW 1025,6 23 0 0,0
15.09.2019 06:00:00 11,0 10,0 8,4 15,6 20,0 19,2 0 0 4 2 N 1025,4 16 0 0,0
15.09.2019 05:00:00 11,9 10,1 8,8 16,1 20,2 19,2 4 2 6 4 NNW 1025,7 25 0 0,0
15.09.2019 04:00:00 12,8 10,0 10,0 16,6 20,5 19,2 5 3 8 5 NW 1025,9 33 0 0,0
15.09.2019 03:00:00 13,4 10,5 10,8 17,2 20,8 19,2 5 3 11 6 NW 1026,4 35 0 0,0
15.09.2019 02:00:00 14,4 10,8 11,8 17,8 21,1 19,2 5 3 10 6 NNW 1026,8 38 0 0,0
15.09.2019 01:00:00 14,4 11,6 11,5 18,5 21,3 19,2 4 2 9 5 NNW 1026,8 36 0 0,0
15.09.2019 00:00:00 17,2 11,9 15,2 19,2 21,6 19,2 8 4 16 8 NNE 1027,1 42 0 0,0
14.09.2019 23:00:00 17,8 12,4 15,9 19,9 21,8 19,3 8 5 12 7 N 1027,6 41 0 0,0
14.09.2019 22:00:00 18,5 12,5 15,6 21,0 22,0 19,3 6 3 12 7 NNE 1027,9 43 0 0,0
14.09.2019 21:00:00 19,8 12,3 17,4 22,3 22,1 19,3 7 4 11 6 NNE 1028,1 55 0 0,0
14.09.2019 20:00:00 21,7 12,3 19,8 23,9 22,0 19,3 9 5 18 10 N 1027,7 70 37 0,0
14.09.2019 19:00:00 23,5 12,3 23,0 25,7 21,8 19,3 9 5 20 11 N 1027,6 70 60 0,0
14.09.2019 18:00:00 24,2 12,2 26,3 27,2 21,4 19,3 9 5 18 10 NNE 1027,8 61 60 0,0
14.09.2019 17:00:00 24,4 12,4 28,2 27,8 20,9 19,3 5 3 19 10 N 1028,1 38 55 0,0
14.09.2019 16:00:00 23,4 12,4 25,0 28,2 20,3 19,3 7 4 19 10 NE 1028,7 70 48 0,0
14.09.2019 15:00:00 23,6 12,9 29,8 27,6 19,8 19,3 6 3 24 13 NNE 1029,5 29 59 0,0
14.09.2019 14:00:00 23,1 13,4 28,5 26,7 19,2 19,3 6 4 19 10 NNE 1030,3 35 60 0,0
14.09.2019 13:00:00 21,6 13,2 25,8 24,6 18,8 19,3 13 7 23 13 NW 1031,0 26 60 0,0
14.09.2019 12:00:00 20,4 12,7 24,4 21,9 18,6 19,3 4 2 11 6 N 1031,7 37 60 0,0
14.09.2019 11:00:00 18,3 12,5 21,0 19,3 18,5 19,3 9 5 13 7 NNW 1031,8 32 60 0,0
14.09.2019 10:00:00 16,2 12,2 17,7 17,3 18,6 19,3 9 5 15 8 NNW 1032,2 30 46 0,0
14.09.2019 09:00:00 13,6 11,9 14,2 15,8 18,7 19,3 12 6 18 10 NNW 1032,9 41 33 0,0
14.09.2019 08:00:00 12,7 11,5 12,3 14,9 18,9 19,3 12 7 19 11 NNW 1032,5 32 9 0,0
14.09.2019 07:00:00 12,7 11,7 11,7 15,2 19,2 19,3 8 5 17 9 N 1032,0 27 0 0,0
14.09.2019 06:00:00 13,1 11,9 12,3 15,5 19,4 19,3 11 6 16 9 NNW 1032,1 31 0 0,0
14.09.2019 05:00:00 13,3 12,2 11,4 15,8 19,6 19,3 5 3 19 11 WNW 1032,2 30 0 0,0
14.09.2019 04:00:00 13,7 12,6 12,6 16,2 19,8 19,3 10 6 15 8 NNW 1032,4 29 0 0,0
14.09.2019 03:00:00 14,3 13,0 12,4 16,6 20,1 19,3 7 4 11 6 NNW 1032,3 28 0 0,0
14.09.2019 02:00:00 14,5 13,2 13,1 17,1 20,3 19,3 8 5 11 6 NNW 1032,5 22 0 0,0
14.09.2019 01:00:00 15,7 13,7 14,3 17,7 20,5 19,3 9 5 15 8 N 1032,3 29 0 0,0
14.09.2019 00:00:00 16,1 14,1 13,3 18,3 20,8 19,3 5 3 10 5 N 1032,3 38 0 0,0
13.09.2019 23:00:00 17,2 14,7 15,7 18,9 21,0 19,3 6 3 9 5 NNE 1032,3 46 0 0,0
13.09.2019 22:00:00 16,5 13,9 13,4 19,9 21,2 19,3 5 3 8 5 N 1032,2 67 0 0,0
13.09.2019 21:00:00 17,4 14,3 14,3 21,0 21,2 19,3 4 2 8 5 NNW 1031,9 70 0 0,0
13.09.2019 20:00:00 19,3 14,4 16,8 22,5 21,2 19,3 5 3 9 5 NNW 1031,5 69 15 0,0
13.09.2019 19:00:00 22,2 14,2 22,3 24,0 21,1 19,3 6 3 14 8 NNE 1031,4 70 6 0,0
13.09.2019 18:00:00 22,6 14,1 23,0 25,2 20,8 19,4 9 5 17 9 N 1031,3 70 2 0,0
13.09.2019 17:00:00 22,9 13,9 24,3 26,1 20,5 19,4 10 5 18 10 NNW 1031,2 70 25 0,0
13.09.2019 16:00:00 22,6 13,8 24,7 25,8 20,1 19,4 11 6 19 11 NW 1031,5 69 0 0,0
13.09.2019 15:00:00 23,1 13,3 27,5 25,8 19,6 19,4 8 5 16 9 WNW 1031,6 30 20 0,0
13.09.2019 14:00:00 22,9 14,1 26,7 24,9 19,2 19,4 10 5 22 12 NW 1031,9 28 31 0,0
13.09.2019 13:00:00 21,9 14,1 24,8 23,8 18,8 19,4 11 6 21 11 WNW 1032,0 63 19 0,0
13.09.2019 12:00:00 21,7 14,5 26,1 22,3 18,5 19,4 6 3 17 9 WNW 1032,2 51 18 0,0
13.09.2019 11:00:00 20,6 14,2 24,4 20,4 18,4 19,4 9 5 14 8 WNW 1032,3 28 33 0,0
13.09.2019 10:00:00 18,7 13,9 19,7 18,3 18,4 19,4 2 1 9 5 S 1032,1 37 60 0,0
13.09.2019 09:00:00 16,2 13,5 15,8 16,4 18,5 19,4 6 4 12 7 SSE 1031,6 35 60 0,0
13.09.2019 08:00:00 15,0 13,2 13,8 15,1 18,7 19,4 2 1 7 4 SE 1031,6 23 26 0,0
13.09.2019 07:00:00 14,2 12,9 11,8 15,2 18,9 19,4 5 3 10 5 SSE 1031,3 26 0 0,0
13.09.2019 06:00:00 14,2 13,0 11,9 15,5 19,1 19,4 5 3 11 6 S 1030,9 26 0 0,0
13.09.2019 05:00:00 14,7 13,3 13,2 15,7 19,3 19,4 8 4 11 6 SSE 1030,7 27 0 0,0
13.09.2019 04:00:00 14,1 13,3 11,4 16,1 19,5 19,4 3 1 9 5 S 1030,8 29 0 0,0
13.09.2019 03:00:00 15,1 13,8 13,2 16,4 19,7 19,4 7 4 10 6 S 1030,7 41 0 0,0
13.09.2019 02:00:00 14,1 13,2 11,0 16,8 20,0 19,4 4 2 7 4 SSE 1030,9 41 0 0,0
13.09.2019 01:00:00 15,5 14,0 12,3 17,4 20,2 19,4 4 2 10 5 S 1030,7 39 0 0,0
13.09.2019 00:00:00 14,9 13,8 12,0 18,0 20,4 19,5 4 2 7 4 SSE 1030,6 41 0 0,0
12.09.2019 23:00:00 15,2 14,0 12,4 18,8 20,6 19,5 3 2 6 3 E 1030,7 42 0 0,0
12.09.2019 22:00:00 16,2 14,6 13,5 19,8 20,8 19,5 3 2 6 3 ESE 1030,7 44 0 0,0
12.09.2019 21:00:00 17,2 15,0 14,7 21,0 20,8 19,5 4 2 6 4 WNW 1030,3 38 0 0,0
12.09.2019 20:00:00 20,2 14,9 17,4 22,6 20,7 19,5 2 1 10 6 SW 1029,6 36 36 0,0
12.09.2019 19:00:00 23,4 14,6 23,4 24,2 20,5 19,5 9 5 16 9 WSW 1029,5 70 54 0,0
12.09.2019 18:00:00 23,9 14,4 25,8 25,2 20,2 19,5 11 6 20 11 WSW 1029,3 47 52 0,0
12.09.2019 17:00:00 23,4 14,4 24,3 25,2 19,9 19,5 12 6 28 15 WSW 1029,6 70 32 0,0
12.09.2019 16:00:00 22,9 14,8 25,2 24,1 19,5 19,5 5 3 21 11 NNW 1030,1 58 5 0,0
12.09.2019 15:00:00 22,7 14,4 24,7 24,3 19,1 19,6 9 5 26 14 W 1030,0 60 6 0,0
12.09.2019 14:00:00 23,0 14,2 25,7 24,1 18,8 19,6 11 6 19 10 WSW 1030,1 56 21 0,0
12.09.2019 13:00:00 22,1 12,9 26,6 22,6 18,5 19,6 10 5 21 11 S 1030,3 38 30 0,0
12.09.2019 12:00:00 20,5 12,5 22,8 20,2 18,4 19,6 12 7 20 11 S 1030,6 52 4 0,0
12.09.2019 11:00:00 19,2 11,9 20,9 18,7 18,3 19,6 12 6 17 9 S 1030,2 60 0 0,0
12.09.2019 10:00:00 18,3 11,6 19,4 17,7 18,3 19,6 11 6 16 9 S 1029,9 53 3 0,0
12.09.2019 09:00:00 17,3 11,6 17,7 16,8 18,4 19,6 12 6 16 9 S 1029,3 46 0 0,0
12.09.2019 08:00:00 16,7 11,7 16,5 16,4 18,5 19,6 9 5 15 8 S 1028,7 41 0 0,0
12.09.2019 07:00:00 16,7 11,4 16,2 16,4 18,6 19,7 10 5 16 9 S 1028,2 43 0 0,0
12.09.2019 06:00:00 16,6 11,5 16,2 16,4 18,7 19,7 9 5 15 8 S 1027,6 44 0 0,0
12.09.2019 05:00:00 16,5 11,5 15,9 16,6 18,8 19,7 10 5 16 8 SSE 1027,6 43 0 0,0
12.09.2019 04:00:00 16,6 11,4 16,2 16,8 18,9 19,7 9 5 13 7 S 1027,4 41 0 0,0
12.09.2019 03:00:00 16,7 11,2 15,9 17,1 19,0 19,7 9 5 13 7 S 1027,1 45 0 0,0
12.09.2019 02:00:00 17,2 11,2 16,7 17,3 19,1 19,7 8 4 14 8 S 1027,0 49 0 0,0
12.09.2019 01:00:00 17,5 10,6 17,0 17,6 19,2 19,7 9 5 12 6 S 1026,6 58 0 0,0
12.09.2019 00:00:00 17,7 10,1 17,1 17,8 19,3 19,8 6 3 10 6 SSE 1026,4 64 0 0,0
11.09.2019 23:00:00 18,3 8,7 17,1 18,1 19,5 19,8 7 4 32 17 S 1026,4 70 0 0,0
11.09.2019 22:00:00 18,3 9,0 17,4 18,5 19,6 19,8 7 4 13 7 S 1026,0 68 0 0,0
11.09.2019 21:00:00 18,7 8,8 17,6 18,9 19,6 19,8 7 4 15 8 SSW 1025,7 70 0 0,0
11.09.2019 20:00:00 19,5 8,4 18,5 19,6 19,7 19,8 11 6 18 10 SW 1024,8 70 0 0,0
11.09.2019 19:00:00 20,3 7,5 19,5 20,6 19,6 19,8 14 8 22 12 WSW 1024,4 70 0 0,0
11.09.2019 18:00:00 20,9 7,2 20,5 21,9 19,3 19,9 16 9 29 15 WSW 1024,1 70 0 0,0
11.09.2019 17:00:00 22,2 7,5 22,6 23,7 18,9 19,9 16 9 26 14 SW 1023,3 70 0 0,0
11.09.2019 16:00:00 22,1 8,2 24,6 25,1 18,3 19,9 8 4 23 12 S 1023,2 48 49 0,0
11.09.2019 15:00:00 21,6 7,9 26,1 24,4 17,8 19,9 10 5 21 12 WSW 1023,6 22 60 0,0
11.09.2019 14:00:00 21,1 6,6 25,6 23,3 17,3 19,9 8 4 15 8 SSW 1023,7 25 60 0,0
11.09.2019 13:00:00 20,6 8,8 24,5 21,7 16,8 20,0 8 4 16 9 SSW 1023,9 29 60 0,0
11.09.2019 12:00:00 18,6 10,0 22,0 19,4 16,5 20,0 5 3 16 9 SSW 1024,3 19 60 0,0
11.09.2019 11:00:00 16,3 9,7 17,6 17,1 16,3 20,0 4 2 8 5 S 1024,6 20 60 0,0
11.09.2019 10:00:00 14,5 9,7 13,3 14,6 16,4 20,0 2 1 5 3 SW 1024,5 19 60 0,0
11.09.2019 09:00:00 12,0 8,6 10,8 12,3 16,5 20,0 0 0 5 3 N 1024,2 18 60 0,0
11.09.2019 08:00:00 8,0 7,1 7,4 11,1 16,8 20,0 2 1 3 2 ESE 1023,8 14 27 0,0
11.09.2019 07:00:00 6,7 6,4 4,9 11,2 17,0 20,0 0 0 4 2 N 1023,3 12 0 0,0
11.09.2019 06:00:00 7,2 6,7 5,1 11,6 17,3 20,1 3 1 7 4 ENE 1022,6 16 0 0,0
11.09.2019 05:00:00 7,5 7,0 5,5 12,0 17,6 20,1 3 2 4 2 NE 1022,2 10 0 0,0
11.09.2019 04:00:00 7,5 7,1 5,9 12,5 17,8 20,1 0 0 5 3 N 1022,0 9 0 0,0
11.09.2019 03:00:00 8,5 7,8 6,3 13,0 18,1 20,1 2 1 5 3 NE 1021,9 12 0 0,0
11.09.2019 02:00:00 10,1 8,7 7,5 13,5 18,4 20,1 3 2 8 5 NE 1021,7 21 0 0,0
11.09.2019 01:00:00 10,2 8,9 7,6 14,1 18,7 20,2 5 3 10 5 NNW 1021,3 27 0 0,0
11.09.2019 00:00:00 9,2 8,5 7,8 14,8 18,9 20,2 3 1 5 3 ENE 1021,1 17 0 0,0
10.09.2019 23:00:00 10,1 9,3 8,5 15,6 19,2 20,2 3 1 5 3 ENE 1020,9 22 0 0,0
10.09.2019 22:00:00 10,7 9,4 9,3 16,6 19,4 20,2 2 1 4 2 NE 1020,7 26 0 0,0
10.09.2019 21:00:00 13,0 10,5 10,4 17,8 19,5 20,2 2 1 9 5 ENE 1020,0 36 0 0,0
10.09.2019 20:00:00 17,5 8,8 13,9 19,3 19,5 20,3 5 3 9 5 ENE 1019,0 57 41 0,0
10.09.2019 19:00:00 19,4 8,2 19,5 20,6 19,4 20,3 4 2 9 5 E 1018,6 58 22 0,0
10.09.2019 18:00:00 19,5 7,4 19,4 22,5 19,1 20,3 8 5 18 10 NNE 1018,2 57 45 0,0
10.09.2019 17:00:00 20,2 9,0 21,9 23,5 18,7 20,3 7 4 17 9 NNE 1017,9 44 38 0,0
10.09.2019 16:00:00 19,5 7,0 20,6 23,9 18,3 20,4 6 4 16 9 NW 1017,9 22 52 0,0
10.09.2019 15:00:00 19,7 8,5 23,8 22,1 17,8 20,4 5 3 23 12 N 1018,0 24 25 0,0
10.09.2019 14:00:00 19,8 7,9 25,3 22,8 17,3 20,4 7 4 14 7 NE 1017,8 39 48 0,0
10.09.2019 13:00:00 18,1 7,7 20,0 21,6 16,9 20,4 5 3 11 6 E 1017,8 37 54 0,0
10.09.2019 12:00:00 18,0 9,3 20,7 19,3 16,6 20,4 4 2 11 6 SW 1018,1 28 60 0,0
10.09.2019 11:00:00 15,9 9,9 18,1 16,9 16,4 20,4 4 2 16 9 NNW 1017,8 22 60 0,0
10.09.2019 10:00:00 13,0 9,8 13,5 14,5 16,4 20,5 9 5 13 7 N 1017,8 15 60 0,0
10.09.2019 09:00:00 10,9 8,0 10,7 12,4 16,6 20,5 5 3 8 4 N 1017,7 20 60 0,0
10.09.2019 08:00:00 8,6 7,7 8,3 11,2 16,8 20,5 4 2 6 4 NNW 1017,2 12 24 0,0
10.09.2019 07:00:00 6,7 6,5 5,2 11,4 17,1 20,5 2 1 7 4 W 1016,6 10 0 0,0
10.09.2019 06:00:00 7,2 6,9 5,5 11,8 17,3 20,5 2 1 6 3 NNW 1016,5 8 0 0,0
10.09.2019 05:00:00 7,5 7,1 6,1 12,2 17,6 20,5 3 2 5 3 NNE 1016,4 7 0 0,0

tt = temperature
td = dewpoint
tt 5cm = temperature 5cm
tt -5cm = temperature -5cm
tt -20cm = temperature -20cm
tt -100cm = temperature -100cm
ff = wind speed
fx = gusts
dd = wind direction
ppp = reduced air pressure
vv = visibility
sd = sunshine duration
rr = precipitation

Next stations